Flag for U.S.A. Weather past 2 weeks in Anchorage, Alaska, U.S.A.

Now
55 °F

Mostly cloudy.


Feels Like: 52 °F
Forecast: 39 / 50 °F
Wind: 12 mph from Northwest

Location: Lake Hood Seaplane

Current Time: Sep 21, 2014 at 4:32:40 PM

Latest Report: Sep 21, 2014 at 3:53 PM


Visibility: 10 mi

Pressure: 29.44 "Hg

Humidity: 64%

Dew point: 43 °F

Location of AnchorageLocation

Historic Weather in Anchorage — Graph

°F

Anchorage temperature yesterday

Maximum temperature yesterday: 61 °F (at 2:53 PM)
Minimum temperature yesterday: 48 °F (at 4:53 AM)
Average temperature yesterday: 54 °F

Past Weeks' High & Low Weather Summary

 TemperatureHumidityPressure
High65 °F (Sep 11, 3:53 PM)94% (Sep 14, 12:59 AM)30.15 "Hg (Sep 14, 12:59 AM)
Low44 °F (Sep 7, 4:53 AM)36% (Sep 14, 8:53 PM)29.00 "Hg (Sep 18, 5:53 PM)
Average53 °F80%29.70 "Hg
* Reported Sep 6 2:53 PM — Sep 21 2:53 PM, Anchorage, Weather by CustomWeather, © 2014

Note: Actual official high and low records may vary slightly from our data, if they occured in-between our weather recording intervals... More about our weather records

Advertising

Anchorage weather history for previous 24 hours

 ConditionsComfort  
Time TempWeatherWind HumidityBarometerVisibility
2:53 PM
Sep 21
58 °FPartly sunny.6 mph60%29.47 "Hg10 mi
1:53 PM57 °FOvercast.7 mph62%29.50 "Hg10 mi
12:53 PM55 °FPassing clouds.3 mph67%29.53 "Hg10 mi
11:53 AM54 °FPartly sunny.No wind67%29.56 "Hg10 mi
10:53 AM51 °FScattered clouds.No wind80%29.58 "Hg10 mi
9:53 AM50 °FOvercast.No wind83%29.59 "Hg10 mi
8:53 AM48 °FOvercast.No wind89%29.61 "Hg10 mi
7:53 AM49 °FOvercast.3 mph86%29.62 "Hg10 mi
6:53 AM47 °FMostly cloudy.No wind90%29.63 "Hg10 mi
5:53 AM49 °FLight rain. Overcast.No wind84%29.64 "Hg10 mi
4:53 AM50 °FOvercast.No wind77%29.66 "Hg10 mi
3:53 AM50 °FOvercast.5 mph77%29.66 "Hg10 mi
2:53 AM50 °FOvercast.6 mph77%29.66 "Hg10 mi
1:53 AM50 °FOvercast.7 mph77%29.67 "Hg10 mi
12:53 AM50 °FPassing clouds.9 mph77%29.67 "Hg10 mi
11:53 PM
Sep 20
51 °FPassing clouds.8 mph74%29.67 "Hg10 mi
10:53 PM52 °FOvercast.8 mph72%29.66 "Hg10 mi
9:53 PM52 °FLight rain. Overcast.7 mph77%29.66 "Hg10 mi
8:53 PM53 °FMore clouds than sun.10 mph77%29.66 "Hg10 mi
7:53 PM55 °FPartly sunny.5 mph69%29.63 "Hg10 mi
6:53 PM57 °FPartly sunny.7 mph58%29.61 "Hg10 mi
5:53 PM59 °FPassing clouds.6 mph54%29.61 "Hg10 mi
4:53 PM61 °FOvercast.6 mph52%29.60 "Hg10 mi
Weather by CustomWeather, © 2014

See weather overviewHow to use our weather pages